Regional Weather Roundup
Issued by NWS

Home | Current Version | Previous Version | Text Only | Print | Product List | Glossary Off
Versions: 1 2 3 4 5 6 7 8 9 10 11 12 13 14 15 16 17 18 19 20 21 22 23 24 25 26 27 28 29 30 31 32 33 34 35 36 37 38 39 40 41 42 43 44 45 46 47 48 49 50

000
ASUS43 KIND 230609
RWRIN

WEATHER ROUNDUP FOR INDIANA
NATIONAL WEATHER SERVICE INDIANAPOLIS IN
200 AM EDT MON APR 23 2018

NOTE: "FAIR" INDICATES FEW OR NO CLOUDS BELOW 12,000 FEET WITH NO
SIGNIFICANT WEATHER AND/OR OBSTRUCTIONS TO VISIBILITY.

* - STATION DOES NOT REPORT WEATHER SUCH AS PRECIPITATION OR FOG.

+ - STATION NOT QUALITY CONTROLLED BY THE NATIONAL WEATHER SERVICE.
    USE DATA WITH CAUTION...ESPECIALLY DEWPOINT AND RELATIVE
    HUMIDITY OBSERVATIONS.

INZ001>003-010>013-019-020-230700-
NORTHWEST INDIANA

CITY           SKY/WX    TMP DP  RH WIND       PRES   REMARKS
GARY /AIRPORT/ FAIR      38  36  91 CALM      30.23F
KNOX *+        FAIR      45  23  42 E8        30.22F
LA PORTE +     FAIR      44  24  44 E9        30.23F
6HR MIN TEMP:  44; 6HR MAX TEMP:  58;

MICHIGAN CITY+ FAIR      46  21  36 E3        30.24S
MONTICELLO +   FAIR      48  21  34 NE9       30.18F
6HR MIN TEMP:  48; 6HR MAX TEMP:  62;

RENSSELAER +   FAIR      45  19  36 NE10      30.19F
VALPARAISO     FAIR      45  23  42 E9        30.22F
6HR MIN TEMP:  44; 6HR MAX TEMP:  61;


$$

LMZ046-743>745-230700-
SOUTHERN LAKE MICHIGAN

STATION/POSITION TIME  TEMP    WIND        PRES    WAVE
                       AIR SEA DIR/SP/G            HT
                 (UTC) (F)     (DEG/KT/KT) (MB)    (FT)
BURNS HARBOR     0540   50     100/  7/ 10 1024.0F
MICHIGAN CITY    0540   50      70/  8/  9   N/A

$$

INZ004-005-014>016-021>024-230700-
NORTH CENTRAL INDIANA

CITY           SKY/WX    TMP DP  RH WIND       PRES   REMARKS
GOSHEN         FAIR      42  23  46 E9        30.24F
6HR MIN TEMP:  41; 6HR MAX TEMP:  57;

LOGANSPORT +   FAIR      46  23  39 NE9       30.19F
ROCHESTER +    FAIR      46  21  36 NE7       30.22F
SOUTH BEND     FAIR      47  20  34 E8        30.25F
6HR MIN TEMP:  46; 6HR MAX TEMP:  59;

WARSAW +       FAIR      43  25  49 E10       30.23F

$$

INZ006>009-017-018-025>027-230700-
NORTHEAST INDIANA

CITY           SKY/WX    TMP DP  RH WIND       PRES   REMARKS
AUBURN +       FAIR      41  27  56 E9        30.24F
FORT WAYNE     MOCLDY    43  26  51 NE10      30.22F
6HR MIN TEMP:  43; 6HR MAX TEMP:  56;

HUNTINGTON +   FAIR      43  24  45 NE7       30.20F
6HR MIN TEMP:  43; 6HR MAX TEMP:  56;


$$

INZ028-029-035-036-043>045-051>053-230700-
WEST CENTRAL INDIANA

CITY           SKY/WX    TMP DP  RH WIND       PRES   REMARKS
CRAWFORDSVL +  FAIR      46  30  54 NE10      30.14F
6HR MIN TEMP:  46; 6HR MAX TEMP:  59;

GREENCASTLE +  FAIR      52  32  46 NE8       30.12F
LAFAYETTE      FAIR      48  25  40 E14       30.16F
6HR MIN TEMP:  48; 6HR MAX TEMP:  60;

TERRE HAUTE    CLOUDY    57  34  41 NE15      30.09F
6HR MIN TEMP:  53; 6HR MAX TEMP:  62; 6HR PCP: TRACE;


$$

INZ030>032-037>040-046>048-054>057-064-065-230700-
CENTRAL INDIANA

CITY           SKY/WX    TMP DP  RH WIND       PRES   REMARKS
FISHERS *+     FAIR      46  32  57 NE7       30.15
FRANKFORT +    FAIR      50  27  40 E15       30.17F
6HR MIN TEMP:  50; 6HR MAX TEMP:  62;

GREENWOOD *+   FAIR      49  33  53 NE10G16   30.12F
INDIANAPOLIS   MOCLDY    51  31  46 NE14      30.13S
6HR MIN TEMP:  51; 6HR MAX TEMP:  63;

-EAGLE CREEK   FAIR      50  30  46 NE8       30.13F
6HR MIN TEMP:  50; 6HR MAX TEMP:  63;

KOKOMO +       FAIR      45  26  47 NE12      30.18F
6HR MIN TEMP:  45; 6HR MAX TEMP:  59;

MARION +       FAIR      45  24  42 E14       30.18F
MT COMFORT *+  FAIR      45  36  70 NE8       30.14F
SHELBYVILLE    FAIR      51  33  50 NE14      30.11F
6HR MIN TEMP:  51; 6HR MAX TEMP:  64;

ZIONSVILLE +   FAIR      46  28  47 E9        30.16S
6HR MIN TEMP:  46; 6HR MAX TEMP:  58;


$$

INZ033-034-041-042-049-050-058-059-230700-
EAST CENTRAL INDIANA

CITY           SKY/WX    TMP DP  RH WIND       PRES   REMARKS
MUNCIE         FAIR      48  28  46 E10       30.17F
6HR MIN TEMP:  48; 6HR MAX TEMP:  62;

RICHMOND +     FAIR      45  32  61 NE13      30.16S

$$

INZ060-061-067>069-081>083-085>088-230700-
SOUTHWEST INDIANA

CITY           SKY/WX    TMP DP  RH WIND       PRES   REMARKS
EVANSVILLE     LGT RAIN  55  46  71 NE9       30.00F
6HR MIN TEMP:  54; 6HR MAX TEMP:  61; 6HR PCP:  0.02;

HUNTINGBURG +  LGT RAIN  60  34  37 E12       30.02F
6HR MIN TEMP:  60; 6HR MAX TEMP:  64; 6HR PCP: TRACE;

WASHINGTON +   MOCLDY    59  30  33 E12       30.03F
6HR MIN TEMP:  58; 6HR MAX TEMP:  61;


$$

INZ062-063-066-070>080-084-089>092-230700-
SOUTH CENTRAL AND SOUTHEAST INDIANA

CITY           SKY/WX    TMP DP  RH WIND       PRES   REMARKS
BATESVILLE +   CLEAR     52  32  46 MISG      30.12F
BEDFORD +      MOCLDY    59  25  27 NE9G16    30.07S
BLOOMINGTON    LGT RAIN  60  30  32 E13       30.08F
6HR MIN TEMP:  60; 6HR MAX TEMP:  63; 6HR PCP: TRACE;

FRENCH LICK *+ MOCLDY    59  23  25 NE10G16   30.04F
MADISON *+     MOCLDY    59  27  29 NE9       30.09F
NORTH VERNON + CLOUDY    55  30  38 NE9       30.09F
SEYMOUR +      CLOUDY    61  32  33 E10       30.07F

$$





USA.gov is the U.S. government's official web portal to all federal, state and local government web resources and services.